{"data":{"norad_id":59309,"epoch":"2026-09-21T05:04:07.320576Z","epoch_age_seconds":100803,"freshness":"FRESH","line1":"1 59309U 24056P   26264.21119584 -.00001189  00000+0 -33697-4 0  9996","line2":"2 59309  43.0034 203.3230 0000980 276.8478  83.2262 15.27566323141092","mean_motion":15.27566323,"eccentricity":9.8e-5,"inclination_deg":43.0034,"raan_deg":203.323,"arg_perigee_deg":276.8478,"mean_anomaly_deg":83.2262,"bstar":-3.3697e-5,"rev_number":14109,"period_min":94.267592726971,"perigee_km":482.41764995257,"apogee_km":483.76245045441,"semimajor_km":6861.2270502035,"source":"CELESTRAK","updated_at":"2026-09-22T09:00:48.895744Z"}}